Tracking 19847 objects as of 17-Sep-2019
HD Live streaming from Space Station
objects crossing your sky now

COSMOS 1474

Track COSMOS 1474 now!
10-day predictions
COSMOS 1474 is classified as:


NORAD ID: 14172
Int'l Code: 1983-069B
Perigee: 1,418.4 km
Apogee: 1,469.7 km
Inclination: 74.0 °
Period: 114.6 minutes
Semi major axis: 7815 km
RCS: 0.7019 m2 (medium)
Launch date: July 6, 1983
Source: Commonwealth of Independent States (former USSR) (CIS)
Launch site: PLESETSK MISSILE AND SPACE COMPLEX (PKMTR)
aabbcc
Your satellite tracking list
Your tracking list is empty




NASA's NSSDC Master Catalog

Two Line Element Set (TLE):
1 14172U 83069B   19259.18534928  .00000017  00000-0  19865-3 0  9997
2 14172  74.0260 150.4878 0032839 148.1847 330.6611 12.56630604660710
Source of the keplerian elements: AFSPC